STARLINK-11594, 64320

Orbit data source: Space-Track

STARLINK-11594, 64320 is a payload satellite owned by SpaceX/Seattle (US) in LEO that was launched on Tue, 10 Jun 2025 UTC via an FALCON 9 launch vehicle from the Air Force Eastern Test Range (AFETR). Payload-class satellites include a variety of spacecraft equipped with specific instruments for various scientific and technological missions. These include communications satellites like Starlink; space stations such as the ISS; scientific satellites like the Hubble; Earth observation satellites from companies like Planet Labs, Umbra, and HawkEye 360; GPS; miniature CubeSats for education and research; and military/defense satellites.

Loading next visibility...
Identifier
64320, 2025-124D
Orbit
LEO
Last TLE update
14 hours ago
Origin
Manufacturer
SpaceX/Seattle
Mission
Operational spacecraft
Bus & Motor
STARLINK V2M, Unknown motor
Mass
730 kg wet, ~700 kg dry
Launch date (UTC)
2025-06-10 (1 month ago)
Launch vehicle
FALCON 9
Launch site
Air Force Eastern Test Range (AFETR)
Object type
Payload
Rocket body
Debris
Shape & HBR
Unknown
Radar Cross Section
Large (>1 m²)

Expand to show TLE details & history

TLE from 14 hours ago
0 STARLINK-11594
1 64320U 25124D   25199.78871628  .00157000  00000-0  12016-2 0  9997
2 64320  43.0026 359.4800 0002728 269.2326  90.8229 15.70886838  6044
Epoch: 2025-07-18T18:55Z
TLE epoch observation values (Epoch: 2025-07-18T18:55:45.086Z)
Latitude
-0.00003°
Longitude
138.70696°
Altitude
356.16 km
Speed
7.697 km/s
True Right ascension
23h 57m 55s
True Declination
0° 00' 00"
Sunlit
Object was in full shadow at epoch
Visualization orbit readout
Latitude
11.09858°
Longitude
147.31162°
Altitude
355.271 km
Speed
7.699 km/s
Apparent Right ascension
03h 43m 26s
Apparent Declination
-30° 49' 14"
Sunlit
Object is in daylight
Visualization observer readout
Local Sidereal Time
21:32:59
Azimuth
113.209° SE
Elevation
-21.026°
Doppler factor
1
Orbital elements
Apogee altitude
360.18 km
Perigee altitude
356.505 km
Semi-major axis
6,736.479 km
Eccentricity
0.00027
Inclination
43.0026°
RAAN
359.48°
Arg. of periapsis
269.2326°
True anomaly
90.85416°
Mean anomaly
90.8229°
Eccentric anomaly
90.83853°
Mean motion
3.92549 °/min
Orbital period
91.71 mins
BSTAR
0.0012016
Loading maneuver chart data...
Loading SW <> Apogee altitude chart data...
Loading historical data...
Loading historical data...
Loading historical data...
Loading historical data...
Loading historical data...
Loading historical data...
Loading historical data...
|